EW7508 Weather Reports


time (UTC)temp
C
wind
direction
speed
KPH
gust
KPH
rain 1hr
cm
rain 24hr
cm
rain mn
cm
humidity
%
barometer
mb
20260507113033 6 346 11.3 22.5 0.00 0.00 0.00 80 1015.3
20260507111510 6 353 9.7 14.5 0.00 0.00 0.00 75 1015.3
20260507110011 7 6 6.4 20.9 0.00 0.00 0.00 73 1015.2
20260507104503 7 259 4.8 19.3 0.00 0.00 0.00 73 1015.0
20260507103001 7 274 6.4 14.5 0.00 0.00 0.00 74 1015.1
20260507101604 6 286 6.4 17.7 0.00 0.00 0.00 73 1015.1
20260507100109 6 287 3.2 16.1 0.00 0.00 0.00 74 1015.1
20260507094601 6 313 6.4 12.9 0.00 0.00 0.00 71 1015.2
20260507093058 6 36 1.6 6.4 0.00 0.00 0.00 74 1015.1
20260507091557 5 36 1.6 6.4 0.00 0.00 0.00 79 1015.1
20260507090056 5 26 3.2 12.9 0.00 0.00 0.00 77 1015.2
20260507084601 7 15 6.4 14.5 0.00 0.00 0.00 66 1015.2
20260507083054 6 208 3.2 11.3 0.00 0.00 0.00 61 1015.0
20260507081555 6 176 1.6 8.0 0.00 0.00 0.00 60 1015.0
20260507080048 7 170 0.0 1.6 0.00 0.00 0.00 61 1014.9
20260507074543 6 94 0.0 3.2 0.00 0.00 0.00 66 1014.8
20260507073038 5 95 0.0 0.0 0.00 0.00 0.00 71 1015.1
20260507071537 5 199 0.0 3.2 0.00 0.00 0.00 72 1015.2
20260507070039 5 199 0.0 11.3 0.00 0.00 0.00 73 1015.3
20260507064541 5 246 6.4 14.5 0.00 0.00 0.00 81 1015.4
20260507063029 5 344 0.0 3.2 0.00 0.00 0.00 77 1015.1
20260507061536 4 344 1.6 11.3 0.00 0.00 0.00 80 1015.0
20260507060027 4 251 0.0 4.8 0.00 0.00 0.00 80 1015.0
20260507054526 3 251 3.2 14.5 0.00 0.00 0.00 82 1015.1
20260507053032 3 228 1.6 16.1 0.00 0.00 0.00 83 1015.0
20260507051525 3 157 3.2 9.7 0.00 0.00 0.00 84 1014.4
20260507050021 3 194 0.0 6.4 0.00 0.00 0.00 85 1014.4
20260507044518 3 220 1.6 4.8 0.00 0.00 0.00 86 1014.4
20260507043016 3 270 0.0 8.0 0.00 0.00 0.00 86 1014.2
20260507041515 3 262 0.0 8.0 0.00 0.00 0.00 87 1014.4
20260507040016 3 254 1.6 9.7 0.00 0.00 0.00 87 1014.3
20260507034514 3 201 0.0 4.8 0.00 0.00 0.00 87 1014.2
20260507033011 2 199 0.0 3.2 0.00 0.00 0.00 88 1014.2
20260507031508 2 198 0.0 6.4 0.00 0.00 0.00 88 1014.0
20260507030010 2 225 0.0 4.8 0.00 0.00 0.00 88 1014.1
20260507024506 1 233 0.0 4.8 0.00 0.00 0.00 88 1014.1
20260507023004 1 233 3.2 11.3 0.00 0.00 0.00 88 1014.1
20260507021501 2 218 1.6 6.4 0.00 0.00 0.00 88 1014.0
20260507020059 2 233 0.0 0.0 0.00 0.00 0.00 89 1014.0
20260507014559 2 201 0.0 3.2 0.00 0.00 0.00 89 1014.0
20260507013114 2 219 0.0 0.0 0.00 0.00 0.00 88 1013.9
20260507011556 2 222 0.0 0.0 0.00 0.00 0.00 88 1014.0
20260507010056 2 255 0.0 0.0 0.00 0.00 0.00 88 1014.1
20260507004554 2 255 0.0 0.0 0.00 0.00 0.00 87 1014.0
20260507003052 2 255 0.0 0.0 0.00 0.00 0.00 86 1014.0
20260507001608 2 255 0.0 0.0 0.00 0.00 0.00 84 1014.0
20260507000048 3 255 0.0 0.0 0.00 0.00 0.00 82 1013.9
20260506234555 4 255 0.0 0.0 0.00 0.00 0.00 79 1014.0
20260506233043 4 255 0.0 0.0 0.00 0.00 0.00 79 1013.9
20260506231541 4 255 3.2 9.7 0.00 0.00 0.00 79 1013.9
20260506230040 4 270 3.2 11.3 0.00 0.00 0.00 78 1013.9
20260506224549 4 243 4.8 16.1 0.00 0.00 0.00 78 1013.7
20260506223036 4 258 9.7 16.1 0.00 0.00 0.00 80 1013.7
20260506221533 4 253 6.4 17.7 0.00 0.00 0.00 79 1013.6
20260506220043 4 256 4.8 14.5 0.00 0.00 0.00 79 1013.5
20260506214530 4 253 4.8 14.5 0.00 0.00 0.00 80 1013.4
20260506213028 5 244 4.8 14.5 0.00 0.00 0.00 79 1013.3
20260506211526 5 251 8.0 17.7 0.00 0.00 0.00 78 1013.3
20260506210022 5 286 4.8 22.5 0.00 0.00 0.00 76 1013.2
20260506204522 5 253 9.7 19.3 0.00 0.00 0.00 78 1013.2
20260506203020 5 256 8.0 22.5 0.00 0.00 0.00 78 1013.2
20260506201519 5 254 6.4 20.9 0.00 0.00 0.00 79 1013.2
20260506200019 5 279 8.0 16.1 0.00 0.00 0.00 78 1013.3
20260506194534 5 309 6.4 17.7 0.00 0.00 0.00 77 1013.3
20260506193016 5 272 8.0 22.5 0.00 0.00 0.00 77 1013.2
20260506191516 5 321 4.8 14.5 0.00 0.00 0.00 74 1013.2
20260506190012 5 270 6.4 17.7 0.00 0.00 0.00 75 1012.8
20260506184511 5 245 12.9 24.1 0.00 0.00 0.00 74 1012.6
20260506183010 5 264 12.9 27.4 0.00 0.00 0.00 74 1012.4
20260506181508 5 241 12.9 30.6 0.00 0.00 0.00 75 1012.5
20260506180007 5 259 17.7 27.4 0.00 0.00 0.00 74 1012.2
20260506174505 5 250 14.5 27.4 0.00 0.00 0.00 74 1012.1
20260506173002 5 258 9.7 24.1 0.00 0.00 0.00 74 1012.0
20260506171501 5 255 11.3 19.3 0.00 0.00 0.00 73 1011.9
20260506170001 6 260 9.7 19.3 0.00 0.00 0.00 75 1011.9
20260506164600 6 264 8.0 22.5 0.00 0.00 0.00 73 1011.9
20260506163058 6 253 12.9 20.9 0.00 0.00 0.00 72 1011.9
20260506161601 6 262 8.0 19.3 0.00 0.00 0.00 69 1011.8
20260506160109 6 263 6.4 20.9 0.00 0.00 0.00 68 1011.7
20260506154555 7 273 11.3 24.1 0.00 0.00 0.00 68 1011.5
20260506153054 7 266 11.3 22.5 0.00 0.00 0.00 64 1011.5
20260506151552 7 290 9.7 29.0 0.00 0.00 0.00 63 1011.5
20260506150052 7 258 8.0 25.7 0.00 0.00 0.00 63 1011.5
20260506144553 7 261 8.0 24.1 0.00 0.00 0.00 62 1011.4
20260506143050 7 267 8.0 17.7 0.00 0.00 0.00 64 1011.4
20260506141548 7 274 9.7 25.7 0.00 0.00 0.00 64 1011.4
20260506140050 8 283 9.7 29.0 0.00 0.00 0.00 62 1011.4
20260506134548 7 274 9.7 19.3 0.00 0.00 0.00 62 1011.3
20260506133045 7 260 11.3 20.9 0.00 0.00 0.00 64 1011.4
20260506131557 7 275 11.3 25.7 0.00 0.00 0.00 63 1011.2
20260506130051 7 267 9.7 25.7 0.00 0.00 0.00 65 1011.2
20260506124542 7 280 11.3 24.1 0.00 0.00 0.00 66 1011.1
20260506123041 8 258 9.7 27.4 0.00 0.00 0.00 64 1011.1
20260506121538 7 324 9.7 20.9 0.00 0.00 0.00 64 1011.0
20260506120036 7 323 8.0 25.7 0.00 0.00 0.00 67 1011.0
20260506114534 7 316 9.7 29.0 0.00 0.00 0.00 66 1010.9